Hlavní strana
METAR-TAF:

METAR-TAF

Letiště :

Eagle, Aljaška, Spojené státy americké

zeměpisná šířka: 64-46-35N, zeměpisná délka: 141-09-03W, výška: 268 m

Aktuální stav počasí

Zpráva byla vytvořena před 49 minutami, v 17:53 UTC
Bezvětří
Teplota -3°C
Vlhkost vzduchu 93%
Tlak 1013 hPa
Viditelnost: 16.1 km
Jasno

METAR: PAEG 181753Z AUTO 00000KT 10SM CLR M03/M04 A2991 RMK AO2 SLP139 I6000 T10281039 11022 21050 51020 TSNO

Čas: 10:42 (18:42 UTC)


TAF: chybějící

Stav a předpovědi počasí z více než 4 000 letišť (zprávy METAR a TAF).

Červené a žluté tečky na mapě představují dostupné meteorologické stanice.

Když kurzor umístíte na tečku, zobrazí se název stanice.

Pak kliknutím zobrazíte stav a předpověď počasí.

Chcete-li změnit mapu, kliknutím na zelené tlačítko se znaménkem +mapu přiblížíte, kliknutím na zelené tlačítko se znaménkem – mapu oddálíte a kliknutím na zelené šipky přejdete na sousední mapy.


METAR-TAF: